Tiempo cada hora Aliwal North

Hoy, 28 Julio, Miércoles

Tiempo Temperatura Precipitaciones Viento Presión Humedad
00:00 +5°C° 0 mm 3 mps 653 mmHg 39%
01:00 +5°C° 0 mm 2 mps 653 mmHg 40%
02:00 +4°C° 0 mm 2 mps 653 mmHg 41%
03:00 +4°C° 0 mm 2 mps 653 mmHg 43%
04:00 +4°C° 0 mm 2 mps 652 mmHg 45%
05:00 +3°C° 0 mm 2 mps 652 mmHg 46%
06:00 +4°C° 0 mm 2 mps 653 mmHg 45%
07:00 +5°C° 0 mm 2 mps 653 mmHg 43%
08:00 +5°C° 0 mm 2 mps 654 mmHg 41%
09:00 +8°C° 0 mm 3 mps 654 mmHg 36%
10:00 +11°C° 0 mm 4 mps 655 mmHg 31%
11:00 +13°C° 0 mm 5 mps 655 mmHg 26%
12:00 +14°C° 0 mm 5 mps 655 mmHg 25%
13:00 +16°C° 0 mm 5 mps 654 mmHg 24%
14:00 +17°C° 0 mm 5 mps 654 mmHg 24%
15:00 +16°C° 0 mm 5 mps 653 mmHg 25%
16:00 +16°C° 0 mm 5 mps 653 mmHg 26%
17:00 +15°C° 0 mm 5 mps 652 mmHg 28%
18:00 +14°C° 0 mm 4 mps 652 mmHg 32%
19:00 +12°C° 0 mm 4 mps 652 mmHg 36%
20:00 +10°C° 0 mm 3 mps 652 mmHg 40%
21:00 +10°C° 0 mm 3 mps 652 mmHg 41%
22:00 +10°C° 0 mm 3 mps 652 mmHg 42%
23:00 +9°C° 0 mm 2 mps 652 mmHg 42%

Mañana, 29 Julio, Jueves

Tiempo Temperatura Precipitaciones Viento Presión Humedad
00:00 +9°C° 0 mm 2 mps 652 mmHg 45%
01:00 +8°C° 0 mm 2 mps 652 mmHg 47%
02:00 +7°C° 0 mm 2 mps 652 mmHg 49%
03:00 +6°C° 0 mm 2 mps 652 mmHg 52%
04:00 +6°C° 0 mm 2 mps 652 mmHg 54%
05:00 +5°C° 0 mm 2 mps 652 mmHg 57%
06:00 +5°C° 0 mm 2 mps 652 mmHg 55%
07:00 +6°C° 0 mm 2 mps 653 mmHg 52%
08:00 +6°C° 0 mm 2 mps 654 mmHg 50%
09:00 +9°C° 0 mm 3 mps 655 mmHg 42%
10:00 +12°C° 0 mm 4 mps 655 mmHg 34%
11:00 +14°C° 0 mm 5 mps 656 mmHg 27%
12:00 +15°C° 0 mm 5 mps 656 mmHg 22%
13:00 +16°C° 0 mm 6 mps 656 mmHg 18%
14:00 +17°C° 0 mm 6 mps 656 mmHg 14%
15:00 +16°C° 0 mm 5 mps 656 mmHg 15%
16:00 +17°C° 0 mm 4 mps 656 mmHg 16%
17:00 +16°C° 0 mm 2 mps 656 mmHg 17%
18:00 +14°C° 0 mm 2 mps 656 mmHg 21%
19:00 +11°C° 0 mm 1 mps 656 mmHg 24%
20:00 +9°C° 0 mm 1 mps 655 mmHg 27%
21:00 +9°C° 0 mm 1 mps 655 mmHg 29%
22:00 +8°C° 0 mm 1 mps 656 mmHg 30%
23:00 +8°C° 0 mm 1 mps 656 mmHg 31%

Pasado mañana, 30 Julio, Viernes

Tiempo Temperatura Precipitaciones Viento Presión Humedad
00:00 +7°C° 0 mm 1 mps 656 mmHg 34%
01:00 +6°C° 0 mm 1 mps 656 mmHg 37%
02:00 +6°C° 0 mm 1 mps 656 mmHg 40%
03:00 +4°C° 0 mm 0 mps 656 mmHg 42%
04:00 +4°C° 0 mm 0 mps 656 mmHg 45%
05:00 +4°C° 0 mm 0 mps 656 mmHg 47%
06:00 +5°C° 0 mm 0 mps 657 mmHg 42%
07:00 +6°C° 0 mm 0 mps 657 mmHg 38%
08:00 +7°C° 0 mm 0 mps 658 mmHg 33%
09:00 +11°C° 0 mm 1 mps 659 mmHg 28%
10:00 +14°C° 0 mm 2 mps 660 mmHg 22%
11:00 +17°C° 0 mm 2 mps 661 mmHg 16%
12:00 +18°C° 0 mm 2 mps 660 mmHg 15%
13:00 +19°C° 0 mm 3 mps 660 mmHg 13%
14:00 +20°C° 0 mm 3 mps 660 mmHg 11%
15:00 +19°C° 0 mm 3 mps 660 mmHg 12%
16:00 +19°C° 0 mm 3 mps 659 mmHg 13%
17:00 +18°C° 0 mm 2 mps 659 mmHg 14%
18:00 +16°C° 0 mm 2 mps 658 mmHg 17%
19:00 +13°C° 0 mm 1 mps 658 mmHg 20%
20:00 +11°C° 0 mm 1 mps 658 mmHg 22%
21:00 +10°C° 0 mm 1 mps 658 mmHg 23%
22:00 +10°C° 0 mm 1 mps 658 mmHg 24%
23:00 +9°C° 0 mm 1 mps 657 mmHg 25%

31 Julio, Sábado

Tiempo Temperatura Precipitaciones Viento Presión Humedad
00:00 +9°C° 0 mm 1 mps 657 mmHg 26%
01:00 +9°C° 0 mm 1 mps 657 mmHg 26%
02:00 +8°C° 0 mm 1 mps 657 mmHg 27%
03:00 +8°C° 0 mm 1 mps 657 mmHg 28%
04:00 +8°C° 0 mm 1 mps 657 mmHg 30%
05:00 +7°C° 0 mm 1 mps 657 mmHg 32%
06:00 +8°C° 0 mm 1 mps 658 mmHg 30%
07:00 +9°C° 0 mm 1 mps 659 mmHg 28%
08:00 +10°C° 0 mm 1 mps 660 mmHg 26%
09:00 +13°C° 0 mm 2 mps 660 mmHg 22%
10:00 +16°C° 0 mm 2 mps 661 mmHg 19%
11:00 +18°C° 0 mm 3 mps 661 mmHg 15%
12:00 +20°C° 0 mm 4 mps 661 mmHg 15%
13:00 +21°C° 0 mm 4 mps 660 mmHg 14%
14:00 +22°C° 0 mm 4 mps 660 mmHg 13%
15:00 +21°C° 0 mm 4 mps 660 mmHg 13%
16:00 +20°C° 0 mm 3 mps 659 mmHg 14%
17:00 +19°C° 0 mm 3 mps 659 mmHg 15%
18:00 +17°C° 0 mm 2 mps 658 mmHg 17%
19:00 +15°C° 0 mm 1 mps 658 mmHg 20%
20:00 +12°C° 0 mm 1 mps 657 mmHg 22%
21:00 +12°C° 0 mm 1 mps 657 mmHg 23%
22:00 +12°C° 0 mm 1 mps 657 mmHg 24%
23:00 +11°C° 0 mm 1 mps 657 mmHg 24%

1 Agosto, Domingo

Tiempo Temperatura Precipitaciones Viento Presión Humedad
00:00 +10°C° 0 mm 1 mps 657 mmHg 28%
01:00 +10°C° 0 mm 1 mps 656 mmHg 32%
02:00 +9°C° 0 mm 1 mps 656 mmHg 35%
03:00 +9°C° 0 mm 1 mps 656 mmHg 36%
04:00 +8°C° 0 mm 1 mps 656 mmHg 36%
05:00 +8°C° 0 mm 1 mps 655 mmHg 36%
06:00 +9°C° 0 mm 1 mps 656 mmHg 33%
07:00 +10°C° 0 mm 1 mps 657 mmHg 30%
08:00 +11°C° 0 mm 1 mps 658 mmHg 27%
09:00 +14°C° 0 mm 2 mps 658 mmHg 23%
10:00 +16°C° 0 mm 2 mps 659 mmHg 20%
11:00 +19°C° 0 mm 3 mps 660 mmHg 16%
12:00 +20°C° 0 mm 4 mps 659 mmHg 15%
13:00 +21°C° 0 mm 5 mps 658 mmHg 13%
14:00 +22°C° 0 mm 6 mps 658 mmHg 12%
15:00 +22°C° 0 mm 5 mps 658 mmHg 13%
16:00 +21°C° 0 mm 4 mps 657 mmHg 14%
17:00 +20°C° 0 mm 4 mps 657 mmHg 14%
18:00 +17°C° 0 mm 3 mps 656 mmHg 17%
19:00 +15°C° 0 mm 2 mps 656 mmHg 19%
20:00 +12°C° 0 mm 1 mps 655 mmHg 21%
21:00 +12°C° 0 mm 1 mps 655 mmHg 24%
22:00 +11°C° 0 mm 1 mps 655 mmHg 27%
23:00 +10°C° 0 mm 1 mps 655 mmHg 29%

2 Agosto, Lunes

Tiempo Temperatura Precipitaciones Viento Presión Humedad
00:00 +10°C° 0 mm 1 mps 655 mmHg 33%
01:00 +8°C° 0 mm 0 mps 655 mmHg 36%
02:00 +8°C° 0 mm 0 mps 654 mmHg 39%
03:00 +7°C° 0 mm 0 mps 654 mmHg 42%
04:00 +7°C° 0 mm 0 mps 654 mmHg 46%
05:00 +7°C° 0 mm 0 mps 654 mmHg 49%
06:00 +8°C° 0 mm 0 mps 654 mmHg 43%
07:00 +9°C° 0 mm 0 mps 655 mmHg 37%
08:00 +10°C° 0 mm 0 mps 656 mmHg 30%
09:00 +13°C° 0 mm 0 mps 657 mmHg 26%
10:00 +18°C° 0 mm 1 mps 657 mmHg 21%
11:00 +20°C° 0 mm 1 mps 658 mmHg 17%
12:00 +21°C° 0 mm 1 mps 658 mmHg 15%
13:00 +22°C° 0 mm 1 mps 657 mmHg 14%
14:00 +23°C° 0 mm 2 mps 657 mmHg 12%
15:00 +21°C° 0 mm 2 mps 657 mmHg 13%
16:00 +21°C° 0 mm 2 mps 656 mmHg 15%
17:00 +20°C° 0 mm 2 mps 656 mmHg 16%
18:00 +18°C° 0 mm 1 mps 656 mmHg 19%
19:00 +15°C° 0 mm 1 mps 655 mmHg 21%
20:00 +13°C° 0 mm 1 mps 655 mmHg 24%
21:00 +12°C° 0 mm 1 mps 655 mmHg 26%
22:00 +11°C° 0 mm 0 mps 654 mmHg 29%
23:00 +10°C° 0 mm 0 mps 654 mmHg 31%
Mostrar más

Necesitamos Su Consentimiento

Meteoprog y nuestros Proveedores de Servicios pueden almacenar y acceder a sus datos personales como cookies, identificadores de dispositivo u otras tecnologías similares de su dispositivo y procesar dichos datos para personalizar contenido y anuncios, además de ofrecer funciones de redes sociales y analizar el tráfico.

  • Almacenar y/o acceder a información en su dispositivo

    Se puede almacenar o acceder a cookies, identificadores de dispositivo u otra información de su dispositivo para los fines anteriormente indicados.

  • Anuncios y contenido personalizados, medición de anuncios y contenido, percepciones del público, y desarrollo de productos

    Los anuncios y el contenido pueden personalizarse en base a su perfil. Se pueden añadir más datos para personalizar mejor los anuncios y contenidos. Se puede medir el rendimiento de los anuncios y contenidos. Se puede obtener la percepción sobre el público que ha visto los anuncios y contenidos. Dichos datos pueden usarse para desarrollar o mejorar la experiencia del usuario, sistemas y software.

Al hacer clic en ‘Estoy De Acuerdo’ usted permitirá el uso de las cookies, identificadores de dispositivo, balizas web u otras tecnologías similares indicadas. Su configuración puede cambiarse desde el navegador de su dispositivo.

Para ciertos fines, los intereses legítimos pueden ser considerados por encima del consentimiento. Puede leer más sobre ello en nuestra Política de Privacidad y Cookies.